CZ-4B DEB (46484 NORAD) Tracking and Keplerian Element Data
This shows tracking and keplerian element data for the satellite.
Feedback or suggestion? Click here.
Element | Value |
Catalog | 46484 |
Name | CZ-4B DEB |
Epoch Orbit | 424 |
Epoch Day | 300.62457049 |
Epoch Year | 2020 |
RAAN | 15.31 |
Inclination | 97.8783 |
Eccentricity | 0.0050619 |
Argument of Perigee | 318.5485 |
Mean Anonmoly | 41.189 |
Mean Motion | 14.78575678 |
Decay Rate | 2.76E-06 |
L1 | 1 46484U 20067G 20300.62457049 .00000276 00000-0 44188-4 0 9997 |
L2 | 2 46484 97.8783 15.3100 0050619 318.5485 41.1890 14.78575678 4246 |
Live tracking and technical data element details for CZ-4B DEB (NORAD 46484). CZ-4B DEB can be tracked NOW for your location showing map with azimuth and elevation plus other details from your city location.
Track the satellite on the map from your city or location and see movement details for azimuth, elevation, latitude, longitude, range, height, and movement on the map or in text.
IsCatalogInMostPopularTable: catalog: 46484, numindb: 39
Update: records affected: 1
GetName: 46484 CZ-4B DEB
Hit Count: updated at: Thu, 28 Jan 2021 12:44:04 GMT